Terminal Aerodrome Forecast
Issued by NWS

Home | Current Version | Previous Version | Text Only | Print | Product List | Glossary On
Versions: 1 2 3 4 5 6 7 8 9 10 11 12 13 14 15 16 17 18 19 20
000
FTUS46 KSEW 210500
TAFBLI
TAF
KBLI 210520Z 2106/2206 00000KT P6SM SKC
     FM212000 20006KT P6SM SKC
     FM220300 15004KT P6SM FEW100=

USA.gov is the U.S. government's official web portal to all federal, state and local government web resources and services.